Weather in Davydovo

Russia / Tambov Oblast     53°38′07″N   41°45′48″E
temp.,
°C
wind,
m/s
gust,
m/s
humid.,
%
clouds,
%
prec.,
mm/h
press.,
hPa
HPBL,
m
27 january, wed
wed2700:00+1s71492100 0.0 1015635
03:00+1sse81688100 0.0 1013636
06:00+1s81688100 0.1 1012674
09:00+1s81694100 0.4 1012725
12:00+1s71496100 1.3 1012557
15:00+1s51398100 2.6 1012597
18:00+1sse61296100 1.4 1011451
21:00+1s71496100 2.9 1011530
28 january, thu
thu2800:00+1s51196100 0.6 1012480
03:00+1s51097100 2.1 1012455
06:00−1sse61092100 0.7 1011448
09:00−2sse61191100 1.0 1011418
12:00−1sse61091100 0.0 1011507
15:00−1sse5892100 0.0 1011586
18:00−1sse4993100 0.0 1011483
21:00−2sse599398 0.1 1010489
29 january, fri
fri2900:00−2sse3794100 0.0 1010402
03:00−2se4794100 0.1 1008372
06:00−3se5894100 0.9 1006437
09:00−3se5894100 1.1 1004462
12:00−3se5996100 2.3 1003457
15:00−2sse4797100 4.1 1001340
18:00−1ssw4992100 0.4 1000286
21:00−4s4109472 0.4 1000266
30 january, sat
sat3000:00−3sse5139547 0.1 998454
03:00−2s6139573 0.6 996741
06:00−3s71395100 0.6 995763
09:00−4sw61385100 1.4 996612
12:00−3sw71185100 0.2 9991010
15:00−3sw7118997 0.3 1000963
18:00−5ssw51192100 0.1 1002436
21:00−4ssw51192100 0.1 1003445
31 january, sun
sun3100:00−4s4993100 0.0 1003321
03:00−4s3697100 1.1 1002278
06:00−3sse1198100 1.3 100044
09:00−4w129697 1.6 100123
12:00−3wsw239438 0.0 1003194
15:00−3wsw249349 0.0 1005171
18:00−5ssw2391100 0.0 100735
21:00−5s2291100 0.0 100821